Year,Month,Day,Hour,Minute,Value (Times are PST for temperature in C)
2014,05,01,00,00,13.60
2014,05,01,00,01,13.60
2014,05,01,00,02,13.50
2014,05,01,00,03,13.50
2014,05,01,00,04,13.50
2014,05,01,00,05,13.50
2014,05,01,00,06,13.40
2014,05,01,00,07,13.40
2014,05,01,00,08,13.40
2014,05,01,00,09,13.40
2014,05,01,00,10,13.40
2014,05,01,00,11,13.40
2014,05,01,00,12,13.40
2014,05,01,00,13,13.40
2014,05,01,00,14,13.40
2014,05,01,00,15,13.40
2014,05,01,00,16,13.40
2014,05,01,00,17,13.30
2014,05,01,00,18,13.30
2014,05,01,00,19,13.30
2014,05,01,00,20,13.30
2014,05,01,00,21,13.30
2014,05,01,00,22,13.30
2014,05,01,00,23,13.20
2014,05,01,00,24,13.20
2014,05,01,00,25,13.20
2014,05,01,00,26,13.20
2014,05,01,00,27,13.20
2014,05,01,00,28,13.20
2014,05,01,00,29,13.20
2014,05,01,00,30,13.10
2014,05,01,00,31,13.10
2014,05,01,00,32,13.10
2014,05,01,00,33,13.10
2014,05,01,00,34,13.10
2014,05,01,00,35,13.00
2014,05,01,00,36,13.00
2014,05,01,00,37,13.00
2014,05,01,00,38,12.90
2014,05,01,00,39,12.90
2014,05,01,00,40,12.90
2014,05,01,00,41,12.80
2014,05,01,00,42,12.80
2014,05,01,00,43,12.80
2014,05,01,00,44,12.80
2014,05,01,00,45,12.80
2014,05,01,00,46,12.70
2014,05,01,00,47,12.70
2014,05,01,00,48,12.70
2014,05,01,00,49,12.70
2014,05,01,00,50,12.70
2014,05,01,00,51,12.70
2014,05,01,00,52,12.70
2014,05,01,00,53,12.60
2014,05,01,00,54,12.60
2014,05,01,00,55,12.60
2014,05,01,00,56,12.50
2014,05,01,00,57,12.50
2014,05,01,00,58,12.50
2014,05,01,00,59,12.40
2014,05,01,01,00,12.40
2014,05,01,01,01,12.40
2014,05,01,01,02,12.40
2014,05,01,01,03,12.30
2014,05,01,01,04,12.30
2014,05,01,01,05,12.30
2014,05,01,01,06,12.30
2014,05,01,01,07,12.20
2014,05,01,01,08,12.20
2014,05,01,01,09,12.20
2014,05,01,01,10,12.20
2014,05,01,01,11,12.20
2014,05,01,01,12,12.10
2014,05,01,01,13,12.10
2014,05,01,01,14,12.10
2014,05,01,01,15,12.10
2014,05,01,01,16,12.10
2014,05,01,01,17,12.10
2014,05,01,01,18,12.10
2014,05,01,01,19,12.00
2014,05,01,01,20,12.00
2014,05,01,01,21,12.00
2014,05,01,01,22,12.00
2014,05,01,01,23,11.90
2014,05,01,01,24,11.90
2014,05,01,01,25,11.90
2014,05,01,01,26,11.90
2014,05,01,01,27,11.90
2014,05,01,01,28,11.80
2014,05,01,01,29,11.80
2014,05,01,01,30,11.80
2014,05,01,01,31,11.80
2014,05,01,01,32,11.80
2014,05,01,01,33,11.80
2014,05,01,01,34,11.70
2014,05,01,01,35,11.70
2014,05,01,01,36,11.70
2014,05,01,01,37,11.70
2014,05,01,01,38,11.70
2014,05,01,01,39,11.70
2014,05,01,01,40,11.70
2014,05,01,01,41,11.70
2014,05,01,01,42,11.70
2014,05,01,01,43,11.70
2014,05,01,01,44,11.70
2014,05,01,01,45,11.70
2014,05,01,01,46,11.70
2014,05,01,01,47,11.70
2014,05,01,01,48,11.60
2014,05,01,01,49,11.60
2014,05,01,01,50,11.60
2014,05,01,01,51,11.60
2014,05,01,01,52,11.60
2014,05,01,01,53,11.60
2014,05,01,01,54,11.60
2014,05,01,01,55,11.60
2014,05,01,01,56,11.60
2014,05,01,01,57,11.60
2014,05,01,01,58,11.60
2014,05,01,01,59,11.60
2014,05,01,02,00,11.60
2014,05,01,02,01,11.60
2014,05,01,02,02,11.60
2014,05,01,02,03,11.50
2014,05,01,02,04,11.50
2014,05,01,02,05,11.50
2014,05,01,02,06,11.50
2014,05,01,02,07,11.50
2014,05,01,02,08,11.40
2014,05,01,02,09,11.40
2014,05,01,02,10,11.40
2014,05,01,02,11,11.40
2014,05,01,02,12,11.40
2014,05,01,02,13,11.40
2014,05,01,02,14,11.40
2014,05,01,02,15,11.40
2014,05,01,02,16,11.40
2014,05,01,02,17,11.40
2014,05,01,02,18,11.40
2014,05,01,02,19,11.30
2014,05,01,02,20,11.30
2014,05,01,02,21,11.30
2014,05,01,02,22,11.30
2014,05,01,02,23,11.30
2014,05,01,02,24,11.30
2014,05,01,02,25,11.30
2014,05,01,02,26,11.20
2014,05,01,02,27,11.20
2014,05,01,02,28,11.20
2014,05,01,02,29,11.20
2014,05,01,02,30,11.20
2014,05,01,02,31,11.10
2014,05,01,02,32,11.10
2014,05,01,02,33,11.10
2014,05,01,02,34,11.10
2014,05,01,02,35,11.00
2014,05,01,02,36,11.00
2014,05,01,02,37,11.00
2014,05,01,02,38,10.90
2014,05,01,02,39,10.90
2014,05,01,02,40,10.90
2014,05,01,02,41,10.90
2014,05,01,02,42,10.90
2014,05,01,02,43,10.80
2014,05,01,02,44,10.80
2014,05,01,02,45,10.80
2014,05,01,02,46,10.80
2014,05,01,02,47,10.80
2014,05,01,02,48,10.80
2014,05,01,02,49,10.80
2014,05,01,02,50,10.80
2014,05,01,02,51,10.70
2014,05,01,02,52,10.70
2014,05,01,02,53,10.70
2014,05,01,02,54,10.70
2014,05,01,02,55,10.70
2014,05,01,02,56,10.70
2014,05,01,02,57,10.70
2014,05,01,02,58,10.70
2014,05,01,02,59,10.70
2014,05,01,03,00,10.70
2014,05,01,03,01,10.70
2014,05,01,03,02,10.70
2014,05,01,03,03,10.70
2014,05,01,03,04,10.70
2014,05,01,03,05,10.70
2014,05,01,03,06,10.70
2014,05,01,03,07,10.70
2014,05,01,03,08,10.70
2014,05,01,03,09,10.70
2014,05,01,03,10,10.70
2014,05,01,03,11,10.70
2014,05,01,03,12,10.70
2014,05,01,03,13,10.70
2014,05,01,03,14,10.60
2014,05,01,03,15,10.60
2014,05,01,03,16,10.60
2014,05,01,03,17,10.60
2014,05,01,03,18,10.60
2014,05,01,03,19,10.60
2014,05,01,03,20,10.60
2014,05,01,03,21,10.60
2014,05,01,03,22,10.60
2014,05,01,03,23,10.60
2014,05,01,03,24,10.60
2014,05,01,03,25,10.60
2014,05,01,03,26,10.60
2014,05,01,03,27,10.60
2014,05,01,03,28,10.60
2014,05,01,03,29,10.60
2014,05,01,03,30,10.60
2014,05,01,03,31,10.60
2014,05,01,03,32,10.60
2014,05,01,03,33,10.60
2014,05,01,03,34,10.60
2014,05,01,03,35,10.60
2014,05,01,03,36,10.60
2014,05,01,03,37,10.70
2014,05,01,03,38,10.60
2014,05,01,03,39,10.60
2014,05,01,03,40,10.60
2014,05,01,03,41,10.60
2014,05,01,03,42,10.60
2014,05,01,03,43,10.60
2014,05,01,03,44,10.60
2014,05,01,03,45,10.60
2014,05,01,03,46,10.60
2014,05,01,03,47,10.60
2014,05,01,03,48,10.60
2014,05,01,03,49,10.60
2014,05,01,03,50,10.60
2014,05,01,03,51,10.60
2014,05,01,03,52,10.60
2014,05,01,03,53,10.50
2014,05,01,03,54,10.50
2014,05,01,03,55,10.50
2014,05,01,03,56,10.50
2014,05,01,03,57,10.50
2014,05,01,03,58,10.50
2014,05,01,03,59,10.50
2014,05,01,04,00,10.50
2014,05,01,04,01,10.50
2014,05,01,04,02,10.50
2014,05,01,04,03,10.50
2014,05,01,04,04,10.50
2014,05,01,04,05,10.40
2014,05,01,04,06,10.40
2014,05,01,04,07,10.40
2014,05,01,04,08,10.40
2014,05,01,04,09,10.40
2014,05,01,04,10,10.40
2014,05,01,04,11,10.40
2014,05,01,04,12,10.40
2014,05,01,04,13,10.40
2014,05,01,04,14,10.40
2014,05,01,04,15,10.30
2014,05,01,04,16,10.30
2014,05,01,04,17,10.30
2014,05,01,04,18,10.30
2014,05,01,04,19,10.30
2014,05,01,04,20,10.30
2014,05,01,04,21,10.30
2014,05,01,04,22,10.30
2014,05,01,04,23,10.30
2014,05,01,04,24,10.30
2014,05,01,04,25,10.30
2014,05,01,04,26,10.30
2014,05,01,04,27,10.30
2014,05,01,04,28,10.30
2014,05,01,04,29,10.20
2014,05,01,04,30,10.20
2014,05,01,04,31,10.20
2014,05,01,04,32,10.20
2014,05,01,04,33,10.20
2014,05,01,04,34,10.20
2014,05,01,04,35,10.20
2014,05,01,04,36,10.20
2014,05,01,04,37,10.20
2014,05,01,04,38,10.20
2014,05,01,04,39,10.20
2014,05,01,04,40,10.20
2014,05,01,04,41,10.20
2014,05,01,04,42,10.20
2014,05,01,04,43,10.20
2014,05,01,04,44,10.20
2014,05,01,04,45,10.20
2014,05,01,04,46,10.20
2014,05,01,04,47,10.20
2014,05,01,04,48,10.20
2014,05,01,04,49,10.30
2014,05,01,04,50,10.30
2014,05,01,04,51,10.30
2014,05,01,04,52,10.30
2014,05,01,04,53,10.30
2014,05,01,04,54,10.30
2014,05,01,04,55,10.30
2014,05,01,04,56,10.30
2014,05,01,04,57,10.30
2014,05,01,04,58,10.30
2014,05,01,04,59,10.30
2014,05,01,05,00,10.30
2014,05,01,05,01,10.30
2014,05,01,05,02,10.30
2014,05,01,05,03,10.30
2014,05,01,05,04,10.30
2014,05,01,05,05,10.30
2014,05,01,05,06,10.30
2014,05,01,05,07,10.30
2014,05,01,05,08,10.30
2014,05,01,05,09,10.20
2014,05,01,05,10,10.20
2014,05,01,05,11,10.20
2014,05,01,05,12,10.20
2014,05,01,05,13,10.20
2014,05,01,05,14,10.20
2014,05,01,05,15,10.20
2014,05,01,05,16,10.20
2014,05,01,05,17,10.20
2014,05,01,05,18,10.20
2014,05,01,05,19,10.20
2014,05,01,05,20,10.20
2014,05,01,05,21,10.20
2014,05,01,05,22,10.20
2014,05,01,05,23,10.20
2014,05,01,05,24,10.20
2014,05,01,05,25,10.20
2014,05,01,05,26,10.20
2014,05,01,05,27,10.30
2014,05,01,05,28,10.30
2014,05,01,05,29,10.30
2014,05,01,05,30,10.30
2014,05,01,05,31,10.30
2014,05,01,05,32,10.30
2014,05,01,05,33,10.40
2014,05,01,05,34,10.40
2014,05,01,05,35,10.50
2014,05,01,05,36,10.50
2014,05,01,05,37,10.50
2014,05,01,05,38,10.60
2014,05,01,05,39,10.60
2014,05,01,05,40,10.60
2014,05,01,05,41,10.70
2014,05,01,05,42,10.70
2014,05,01,05,43,10.70
2014,05,01,05,44,10.70
2014,05,01,05,45,10.70
2014,05,01,05,46,10.70
2014,05,01,05,47,10.70
2014,05,01,05,48,10.70
2014,05,01,05,49,10.70
2014,05,01,05,50,10.70
2014,05,01,05,51,10.70
2014,05,01,05,52,10.70
2014,05,01,05,53,10.70
2014,05,01,05,54,10.70
2014,05,01,05,55,10.70
2014,05,01,05,56,10.60
2014,05,01,05,57,10.60
2014,05,01,05,58,10.60
2014,05,01,05,59,10.60
2014,05,01,06,00,10.50
2014,05,01,06,01,10.50
2014,05,01,06,02,10.50
2014,05,01,06,03,10.50
2014,05,01,06,04,10.50
2014,05,01,06,05,10.50
2014,05,01,06,06,10.50
2014,05,01,06,07,10.50
2014,05,01,06,08,10.50
2014,05,01,06,09,10.60
2014,05,01,06,10,10.60
2014,05,01,06,11,10.60
2014,05,01,06,12,10.60
2014,05,01,06,13,10.60
2014,05,01,06,14,10.60
2014,05,01,06,15,10.60
2014,05,01,06,16,10.60
2014,05,01,06,17,10.60
2014,05,01,06,18,10.60
2014,05,01,06,19,10.60
2014,05,01,06,20,10.60
2014,05,01,06,21,10.60
2014,05,01,06,22,10.60
2014,05,01,06,23,10.60
2014,05,01,06,24,10.60
2014,05,01,06,25,10.60
2014,05,01,06,26,10.60
2014,05,01,06,27,10.60
2014,05,01,06,28,10.60
2014,05,01,06,29,10.60
2014,05,01,06,30,10.60
2014,05,01,06,31,10.60
2014,05,01,06,32,10.60
2014,05,01,06,33,10.60
2014,05,01,06,34,10.70
2014,05,01,06,35,10.70
2014,05,01,06,36,10.70
2014,05,01,06,37,10.70
2014,05,01,06,38,10.80
2014,05,01,06,39,10.80
2014,05,01,06,40,10.80
2014,05,01,06,41,10.80
2014,05,01,06,42,10.90
2014,05,01,06,43,10.90
2014,05,01,06,44,10.90
2014,05,01,06,45,10.90
2014,05,01,06,46,11.00
2014,05,01,06,47,11.00
2014,05,01,06,48,11.00
2014,05,01,06,49,11.10
2014,05,01,06,50,11.10
2014,05,01,06,51,11.10
2014,05,01,06,52,11.20
2014,05,01,06,53,11.20
2014,05,01,06,54,11.20
2014,05,01,06,55,11.30
2014,05,01,06,56,11.30
2014,05,01,06,57,11.40
2014,05,01,06,58,11.50
2014,05,01,06,59,11.50
2014,05,01,07,00,11.50
2014,05,01,07,01,11.60
2014,05,01,07,02,11.60
2014,05,01,07,03,11.60
2014,05,01,07,04,11.70
2014,05,01,07,05,11.70
2014,05,01,07,06,11.70
2014,05,01,07,07,11.80
2014,05,01,07,08,11.80
2014,05,01,07,09,11.80
2014,05,01,07,10,11.80
2014,05,01,07,11,11.90
2014,05,01,07,12,11.90
2014,05,01,07,13,11.90
2014,05,01,07,14,12.00
2014,05,01,07,15,12.10
2014,05,01,07,16,12.10
2014,05,01,07,17,12.20
2014,05,01,07,18,12.20
2014,05,01,07,19,12.30
2014,05,01,07,20,12.30
2014,05,01,07,21,12.40
2014,05,01,07,22,12.40
2014,05,01,07,23,12.40
2014,05,01,07,24,12.50
2014,05,01,07,25,12.60
2014,05,01,07,26,12.60
2014,05,01,07,27,12.70
2014,05,01,07,28,12.70
2014,05,01,07,29,12.70
2014,05,01,07,30,12.80
2014,05,01,07,31,12.80
2014,05,01,07,32,12.80
2014,05,01,07,33,12.80
2014,05,01,07,34,12.80
2014,05,01,07,35,12.90
2014,05,01,07,36,12.90
2014,05,01,07,37,12.90
2014,05,01,07,38,12.90
2014,05,01,07,39,12.90
2014,05,01,07,40,12.90
2014,05,01,07,41,13.00
2014,05,01,07,42,13.00
2014,05,01,07,43,13.00
2014,05,01,07,44,13.10
2014,05,01,07,45,13.10
2014,05,01,07,46,13.20
2014,05,01,07,47,13.30
2014,05,01,07,48,13.30
2014,05,01,07,49,13.40
2014,05,01,07,50,13.50
2014,05,01,07,51,13.50
2014,05,01,07,52,13.60
2014,05,01,07,53,13.60
2014,05,01,07,54,13.70
2014,05,01,07,55,13.80
2014,05,01,07,56,13.80
2014,05,01,07,57,13.90
2014,05,01,07,58,14.00
2014,05,01,07,59,14.10
2014,05,01,08,00,14.20
2014,05,01,08,01,14.30
2014,05,01,08,02,14.30
2014,05,01,08,03,14.50
2014,05,01,08,04,14.60
2014,05,01,08,05,14.70
2014,05,01,08,06,14.90
2014,05,01,08,07,15.10
2014,05,01,08,08,15.30
2014,05,01,08,09,15.40
2014,05,01,08,10,15.60
2014,05,01,08,11,15.80
2014,05,01,08,12,15.90
2014,05,01,08,13,16.10
2014,05,01,08,14,16.20
2014,05,01,08,15,16.40
2014,05,01,08,16,16.50
2014,05,01,08,17,16.60
2014,05,01,08,18,16.80
2014,05,01,08,19,16.90
2014,05,01,08,20,17.00
2014,05,01,08,21,17.10
2014,05,01,08,22,17.10
2014,05,01,08,23,17.20
2014,05,01,08,24,17.40
2014,05,01,08,25,17.50
2014,05,01,08,26,17.60
2014,05,01,08,27,17.70
2014,05,01,08,28,17.80
2014,05,01,08,29,17.90
2014,05,01,08,30,18.00
2014,05,01,08,31,18.10
2014,05,01,08,32,18.20
2014,05,01,08,33,18.20
2014,05,01,08,34,18.30
2014,05,01,08,35,18.40
2014,05,01,08,36,18.40
2014,05,01,08,37,18.50
2014,05,01,08,38,18.50
2014,05,01,08,39,18.60
2014,05,01,08,40,18.60
2014,05,01,08,41,18.60
2014,05,01,08,42,18.60
2014,05,01,08,43,18.60
2014,05,01,08,44,18.60
2014,05,01,08,45,18.60
2014,05,01,08,46,18.60
2014,05,01,08,47,18.60
2014,05,01,08,48,18.60
2014,05,01,08,49,18.60
2014,05,01,08,50,18.60
2014,05,01,08,51,18.60
2014,05,01,08,52,18.60
2014,05,01,08,53,18.50
2014,05,01,08,54,18.50
2014,05,01,08,55,18.50
2014,05,01,08,56,18.50
2014,05,01,08,57,18.50
2014,05,01,08,58,18.50
2014,05,01,08,59,18.60
2014,05,01,09,00,18.60
2014,05,01,09,01,18.60
2014,05,01,09,02,18.60
2014,05,01,09,03,18.60
2014,05,01,09,04,18.60
2014,05,01,09,05,18.70
2014,05,01,09,06,18.70
2014,05,01,09,07,18.70
2014,05,01,09,08,18.80
2014,05,01,09,09,18.80
2014,05,01,09,10,18.80
2014,05,01,09,11,18.80
2014,05,01,09,12,18.80
2014,05,01,09,13,18.80
2014,05,01,09,14,18.90
2014,05,01,09,15,18.90
2014,05,01,09,16,18.90
2014,05,01,09,17,18.90
2014,05,01,09,18,18.90
2014,05,01,09,19,19.00
2014,05,01,09,20,19.00
2014,05,01,09,21,19.10
2014,05,01,09,22,19.20
2014,05,01,09,23,19.30
2014,05,01,09,24,19.30
2014,05,01,09,25,19.30
2014,05,01,09,26,19.40
2014,05,01,09,27,19.40
2014,05,01,09,28,19.40
2014,05,01,09,29,19.40
2014,05,01,09,30,19.50
2014,05,01,09,31,19.60
2014,05,01,09,32,19.70
2014,05,01,09,33,19.70
2014,05,01,09,34,19.80
2014,05,01,09,35,19.80
2014,05,01,09,36,19.90
2014,05,01,09,37,20.00
2014,05,01,09,38,20.00
2014,05,01,09,39,20.10
2014,05,01,09,40,20.10
2014,05,01,09,41,20.10
2014,05,01,09,42,20.10
2014,05,01,09,43,20.10
2014,05,01,09,44,20.10
2014,05,01,09,45,20.10
2014,05,01,09,46,20.10
2014,05,01,09,47,20.10
2014,05,01,09,48,20.10
2014,05,01,09,49,20.10
2014,05,01,09,50,20.00
2014,05,01,09,51,20.00
2014,05,01,09,52,20.00
2014,05,01,09,53,20.10
2014,05,01,09,54,20.10
2014,05,01,09,55,20.10
2014,05,01,09,56,20.20
2014,05,01,09,57,20.20
2014,05,01,09,58,20.30
2014,05,01,09,59,20.30
2014,05,01,10,00,20.30
2014,05,01,10,01,20.40
2014,05,01,10,02,20.50
2014,05,01,10,03,20.50
2014,05,01,10,04,20.50
2014,05,01,10,05,20.50
2014,05,01,10,06,20.50
2014,05,01,10,07,20.40
2014,05,01,10,08,20.40
2014,05,01,10,09,20.40
2014,05,01,10,10,20.40
2014,05,01,10,11,20.40
2014,05,01,10,12,20.40
2014,05,01,10,13,20.40
2014,05,01,10,14,20.40
2014,05,01,10,15,20.40
2014,05,01,10,16,20.40
2014,05,01,10,17,20.40
2014,05,01,10,18,20.40
2014,05,01,10,19,20.50
2014,05,01,10,20,20.50
2014,05,01,10,21,20.60
2014,05,01,10,22,20.60
2014,05,01,10,23,20.60
2014,05,01,10,24,20.60
2014,05,01,10,25,20.60
2014,05,01,10,26,20.70
2014,05,01,10,27,20.70
2014,05,01,10,28,20.80
2014,05,01,10,29,20.80
2014,05,01,10,30,20.70
2014,05,01,10,31,20.70
2014,05,01,10,32,20.70
2014,05,01,10,33,20.70
2014,05,01,10,34,20.70
2014,05,01,10,35,20.70
2014,05,01,10,36,20.80
2014,05,01,10,37,20.80
2014,05,01,10,38,20.90
2014,05,01,10,39,21.00
2014,05,01,10,40,21.00
2014,05,01,10,41,21.10
2014,05,01,10,42,21.00
2014,05,01,10,43,21.00
2014,05,01,10,44,21.00
2014,05,01,10,45,21.00
2014,05,01,10,46,21.10
2014,05,01,10,47,21.10
2014,05,01,10,48,21.10
2014,05,01,10,49,21.20
2014,05,01,10,50,21.20
2014,05,01,10,51,21.20
2014,05,01,10,52,21.20
2014,05,01,10,53,21.20
2014,05,01,10,54,21.30
2014,05,01,10,55,21.30
2014,05,01,10,56,21.30
2014,05,01,10,57,21.30
2014,05,01,10,58,21.30
2014,05,01,10,59,21.40
2014,05,01,11,00,21.50
2014,05,01,11,01,21.60
2014,05,01,11,02,21.60
2014,05,01,11,03,21.60
2014,05,01,11,04,21.70
2014,05,01,11,05,21.70
2014,05,01,11,06,21.70
2014,05,01,11,07,21.80
2014,05,01,11,08,21.90
2014,05,01,11,09,22.00
2014,05,01,11,10,22.00
2014,05,01,11,11,22.10
2014,05,01,11,12,22.00
2014,05,01,11,13,22.00
2014,05,01,11,14,22.10
2014,05,01,11,15,22.10
2014,05,01,11,16,22.20
2014,05,01,11,17,22.30
2014,05,01,11,18,22.30
2014,05,01,11,19,22.40
2014,05,01,11,20,22.50
2014,05,01,11,21,22.60
2014,05,01,11,22,22.60
2014,05,01,11,23,22.70
2014,05,01,11,24,22.70
2014,05,01,11,25,22.80
2014,05,01,11,26,22.80
2014,05,01,11,27,22.80
2014,05,01,11,28,22.80
2014,05,01,11,29,22.80
2014,05,01,11,30,22.90
2014,05,01,11,31,22.90
2014,05,01,11,32,22.90
2014,05,01,11,33,23.00
2014,05,01,11,34,23.00
2014,05,01,11,35,23.10
2014,05,01,11,36,23.10
2014,05,01,11,37,23.10
2014,05,01,11,38,23.00
2014,05,01,11,39,23.10
2014,05,01,11,40,23.10
2014,05,01,11,41,23.10
2014,05,01,11,42,23.10
2014,05,01,11,43,23.10
2014,05,01,11,44,23.10
2014,05,01,11,45,23.10
2014,05,01,11,46,23.10
2014,05,01,11,47,23.10
2014,05,01,11,48,23.10
2014,05,01,11,49,23.10
2014,05,01,11,50,23.10
2014,05,01,11,51,23.10
2014,05,01,11,52,23.20
2014,05,01,11,53,23.20
2014,05,01,11,54,23.20
2014,05,01,11,55,23.20
2014,05,01,11,56,23.30
2014,05,01,11,57,23.30
2014,05,01,11,58,23.30
2014,05,01,11,59,23.30
2014,05,01,12,00,23.30
2014,05,01,12,01,23.30
2014,05,01,12,02,23.30
2014,05,01,12,03,23.30
2014,05,01,12,04,23.40
2014,05,01,12,05,23.40
2014,05,01,12,06,23.40
2014,05,01,12,07,23.40
2014,05,01,12,08,23.40
2014,05,01,12,09,23.40
2014,05,01,12,10,23.30
2014,05,01,12,11,23.20
2014,05,01,12,12,23.30
2014,05,01,12,13,23.30
2014,05,01,12,14,23.30
2014,05,01,12,15,23.40
2014,05,01,12,16,23.40
2014,05,01,12,17,23.50
2014,05,01,12,18,23.50
2014,05,01,12,19,23.40
2014,05,01,12,20,23.30
2014,05,01,12,21,23.20
2014,05,01,12,22,23.20
2014,05,01,12,23,23.30
2014,05,01,12,24,23.40
2014,05,01,12,25,23.40
2014,05,01,12,26,23.50
2014,05,01,12,27,23.50
2014,05,01,12,28,23.60
2014,05,01,12,29,23.60
2014,05,01,12,30,23.60
2014,05,01,12,31,23.70
2014,05,01,12,32,23.70
2014,05,01,12,33,23.70
2014,05,01,12,34,23.70
2014,05,01,12,35,23.80
2014,05,01,12,36,23.80
2014,05,01,12,37,23.80
2014,05,01,12,38,23.80
2014,05,01,12,39,23.80
2014,05,01,12,40,23.80
2014,05,01,12,41,23.80
2014,05,01,12,42,23.70
2014,05,01,12,43,23.70
2014,05,01,12,44,23.70
2014,05,01,12,45,23.70
2014,05,01,12,46,23.80
2014,05,01,12,47,23.80
2014,05,01,12,48,23.80
2014,05,01,12,49,23.80
2014,05,01,12,50,23.90
2014,05,01,12,51,23.90
2014,05,01,12,52,23.90
2014,05,01,12,53,24.00
2014,05,01,12,54,24.10
2014,05,01,12,55,24.20
2014,05,01,12,56,24.20
2014,05,01,12,57,24.30
2014,05,01,12,58,24.30
2014,05,01,12,59,24.30
2014,05,01,13,00,24.40
2014,05,01,13,01,24.40
2014,05,01,13,02,24.50
2014,05,01,13,03,24.60
2014,05,01,13,04,24.70
2014,05,01,13,05,24.70
2014,05,01,13,06,24.80
2014,05,01,13,07,24.80
2014,05,01,13,08,24.80
2014,05,01,13,09,24.90
2014,05,01,13,10,24.90
2014,05,01,13,11,24.90
2014,05,01,13,12,24.90
2014,05,01,13,13,24.90
2014,05,01,13,14,24.80
2014,05,01,13,15,24.70
2014,05,01,13,16,24.50
2014,05,01,13,17,24.50
2014,05,01,13,18,24.40
2014,05,01,13,19,24.40
2014,05,01,13,20,24.30
2014,05,01,13,21,24.20
2014,05,01,13,22,24.10
2014,05,01,13,23,23.90
2014,05,01,13,24,23.80
2014,05,01,13,25,23.70
2014,05,01,13,26,23.60
2014,05,01,13,27,23.50
2014,05,01,13,28,23.40
2014,05,01,13,29,23.40
2014,05,01,13,30,23.40
2014,05,01,13,31,23.30
2014,05,01,13,32,23.30
2014,05,01,13,33,23.20
2014,05,01,13,34,23.20
2014,05,01,13,35,23.20
2014,05,01,13,36,23.20
2014,05,01,13,37,23.20
2014,05,01,13,38,23.30
2014,05,01,13,39,23.30
2014,05,01,13,40,23.40
2014,05,01,13,41,23.40
2014,05,01,13,42,23.40
2014,05,01,13,43,23.40
2014,05,01,13,44,23.30
2014,05,01,13,45,23.30
2014,05,01,13,46,23.40
2014,05,01,13,47,23.40
2014,05,01,13,48,23.30
2014,05,01,13,49,23.30
2014,05,01,13,50,23.30
2014,05,01,13,51,23.30
2014,05,01,13,52,23.30
2014,05,01,13,53,23.20
2014,05,01,13,54,23.30
2014,05,01,13,55,23.30
2014,05,01,13,56,23.30
2014,05,01,13,57,23.40
2014,05,01,13,58,23.40
2014,05,01,13,59,23.40
2014,05,01,14,00,23.50
2014,05,01,14,01,23.50
2014,05,01,14,02,23.40
2014,05,01,14,03,23.20
2014,05,01,14,04,23.20
2014,05,01,14,05,23.20
2014,05,01,14,06,23.20
2014,05,01,14,07,23.20
2014,05,01,14,08,23.20
2014,05,01,14,09,23.20
2014,05,01,14,10,23.20
2014,05,01,14,11,23.20
2014,05,01,14,12,23.30
2014,05,01,14,13,23.30
2014,05,01,14,14,23.30
2014,05,01,14,15,23.20
2014,05,01,14,16,23.20
2014,05,01,14,17,23.10
2014,05,01,14,18,23.00
2014,05,01,14,19,23.00
2014,05,01,14,20,22.90
2014,05,01,14,21,22.80
2014,05,01,14,22,22.80
2014,05,01,14,23,22.80
2014,05,01,14,24,22.80
2014,05,01,14,25,22.80
2014,05,01,14,26,22.70
2014,05,01,14,27,22.70
2014,05,01,14,28,22.70
2014,05,01,14,29,22.80
2014,05,01,14,30,22.80
2014,05,01,14,31,22.90
2014,05,01,14,32,22.90
2014,05,01,14,33,23.00
2014,05,01,14,34,23.10
2014,05,01,14,35,23.10
2014,05,01,14,36,23.10
2014,05,01,14,37,22.90
2014,05,01,14,38,22.80
2014,05,01,14,39,22.70
2014,05,01,14,40,22.60
2014,05,01,14,41,22.50
2014,05,01,14,42,22.40
2014,05,01,14,43,22.40
2014,05,01,14,44,22.40
2014,05,01,14,45,22.50
2014,05,01,14,46,22.50
2014,05,01,14,47,22.60
2014,05,01,14,48,22.60
2014,05,01,14,49,22.70
2014,05,01,14,50,22.60
2014,05,01,14,51,22.60
2014,05,01,14,52,22.60
2014,05,01,14,53,22.60
2014,05,01,14,54,22.60
2014,05,01,14,55,22.60
2014,05,01,14,56,22.70
2014,05,01,14,57,22.70
2014,05,01,14,58,22.70
2014,05,01,14,59,22.70
2014,05,01,15,00,22.60
2014,05,01,15,01,22.60
2014,05,01,15,02,22.50
2014,05,01,15,03,22.50
2014,05,01,15,04,22.40
2014,05,01,15,05,22.40
2014,05,01,15,06,22.30
2014,05,01,15,07,22.40
2014,05,01,15,08,22.40
2014,05,01,15,09,22.40
2014,05,01,15,10,22.50
2014,05,01,15,11,22.50
2014,05,01,15,12,22.40
2014,05,01,15,13,22.30
2014,05,01,15,14,22.30
2014,05,01,15,15,22.20
2014,05,01,15,16,22.20
2014,05,01,15,17,22.30
2014,05,01,15,18,22.30
2014,05,01,15,19,22.40
2014,05,01,15,20,22.50
2014,05,01,15,21,22.60
2014,05,01,15,22,22.60
2014,05,01,15,23,22.70
2014,05,01,15,24,22.80
2014,05,01,15,25,22.80
2014,05,01,15,26,22.80
2014,05,01,15,27,22.90
2014,05,01,15,28,22.90
2014,05,01,15,29,22.90
2014,05,01,15,30,23.00
2014,05,01,15,31,23.00
2014,05,01,15,32,23.10
2014,05,01,15,33,23.10
2014,05,01,15,34,23.10
2014,05,01,15,35,23.20
2014,05,01,15,36,23.20
2014,05,01,15,37,23.20
2014,05,01,15,38,23.20
2014,05,01,15,39,23.30
2014,05,01,15,40,23.30
2014,05,01,15,41,23.30
2014,05,01,15,42,23.30
2014,05,01,15,43,23.30
2014,05,01,15,44,23.40
2014,05,01,15,45,23.50
2014,05,01,15,46,23.60
2014,05,01,15,47,23.60
2014,05,01,15,48,23.60
2014,05,01,15,49,23.60
2014,05,01,15,50,23.60
2014,05,01,15,51,23.60
2014,05,01,15,52,23.60
2014,05,01,15,53,23.60
2014,05,01,15,54,23.60
2014,05,01,15,55,23.60
2014,05,01,15,56,23.50
2014,05,01,15,57,23.50
2014,05,01,15,58,23.40
2014,05,01,15,59,23.40
2014,05,01,16,00,23.30
2014,05,01,16,01,23.30
2014,05,01,16,02,23.30
2014,05,01,16,03,23.30
2014,05,01,16,04,23.40
2014,05,01,16,05,23.40
2014,05,01,16,06,23.40
2014,05,01,16,07,23.40
2014,05,01,16,08,23.40
2014,05,01,16,09,23.40
2014,05,01,16,10,23.30
2014,05,01,16,11,23.30
2014,05,01,16,12,23.20
2014,05,01,16,13,23.20
2014,05,01,16,14,23.20
2014,05,01,16,15,23.20
2014,05,01,16,16,23.10
2014,05,01,16,17,23.10
2014,05,01,16,18,23.00
2014,05,01,16,19,23.00
2014,05,01,16,20,23.00
2014,05,01,16,21,23.00
2014,05,01,16,22,23.10
2014,05,01,16,23,23.10
2014,05,01,16,24,23.20
2014,05,01,16,25,23.20
2014,05,01,16,26,23.20
2014,05,01,16,27,23.30
2014,05,01,16,28,23.30
2014,05,01,16,29,23.30
2014,05,01,16,30,23.20
2014,05,01,16,31,23.20
2014,05,01,16,32,23.20
2014,05,01,16,33,23.20
2014,05,01,16,34,23.20
2014,05,01,16,35,23.10
2014,05,01,16,36,23.10
2014,05,01,16,37,23.10
2014,05,01,16,38,23.10
2014,05,01,16,39,23.10
2014,05,01,16,40,23.20
2014,05,01,16,41,23.20
2014,05,01,16,42,23.30
2014,05,01,16,43,23.30
2014,05,01,16,44,23.30
2014,05,01,16,45,23.40
2014,05,01,16,46,23.40
2014,05,01,16,47,23.30
2014,05,01,16,48,23.30
2014,05,01,16,49,23.20
2014,05,01,16,50,23.20
2014,05,01,16,51,23.20
2014,05,01,16,52,23.10
2014,05,01,16,53,23.10
2014,05,01,16,54,23.10
2014,05,01,16,55,23.10
2014,05,01,16,56,23.00
2014,05,01,16,57,23.00
2014,05,01,16,58,23.00
2014,05,01,16,59,22.90
2014,05,01,17,00,22.90
2014,05,01,17,01,22.90
2014,05,01,17,02,22.80
2014,05,01,17,03,22.80
2014,05,01,17,04,22.70
2014,05,01,17,05,22.70
2014,05,01,17,06,22.70
2014,05,01,17,07,22.70
2014,05,01,17,08,22.70
2014,05,01,17,09,22.70
2014,05,01,17,10,22.70
2014,05,01,17,11,22.70
2014,05,01,17,12,22.70
2014,05,01,17,13,22.70
2014,05,01,17,14,22.60
2014,05,01,17,15,22.60
2014,05,01,17,16,22.60
2014,05,01,17,17,22.60
2014,05,01,17,18,22.50
2014,05,01,17,19,22.50